{"data":{"norad_id":67182,"epoch":"2026-09-20T08:58:07.316256Z","epoch_age_seconds":89119,"freshness":"FRESH","line1":"1 67182U 25303V   26263.37369579  .00015249  00000+0  56231-3 0  9995","line2":"2 67182  42.9992 290.8842 0001773 271.5794  88.4855 15.27592103 42512","mean_motion":15.27592103,"eccentricity":0.0001773,"inclination_deg":42.9992,"raan_deg":290.8842,"arg_perigee_deg":271.5794,"mean_anomaly_deg":88.4855,"bstar":0.00056231,"rev_number":4251,"period_min":94.266001845127,"perigee_km":481.79637367351,"apogee_km":484.22933741229,"semimajor_km":6861.1498555429,"source":"CELESTRAK","updated_at":"2026-09-21T09:00:36.132451Z"}}